EW7682 Weather Reports


time (UTC)temp
C
wind
direction
speed
KPH
gust
KPH
rain 1hr
cm
rain 24hr
cm
rain mn
cm
humidity
%
barometer
mb
20260506143007 15 0.0 16.1 0.00 0.00 0.00 84 1012.3
20260506141504 15 0.0 22.5 0.00 0.00 0.00 84 1012.6
20260506140003 15 1.6 24.1 0.00 0.00 0.00 84 1012.8
20260506134600 16 0.0 20.9 0.00 0.00 0.00 84 1012.9
20260506133133 15 4.8 19.3 0.00 0.00 0.00 84 1012.9
20260506131553 15 1.6 22.5 0.00 0.00 0.00 85 1012.7
20260506130133 15 1.6 12.9 0.00 0.00 0.00 86 1012.6
20260506124551 15 1.6 19.3 0.00 0.00 0.00 86 1012.8
20260506123048 15 0.0 14.5 0.00 0.00 0.00 85 1012.8
20260506121551 15 0.0 11.3 0.00 0.00 0.00 86 1013.0
20260506120041 15 0.0 0.0 0.00 0.00 0.00 86 1013.1
20260506114535 15 3.2 14.5 0.00 0.00 0.00 88 1013.1
20260506113038 14 0.0 9.7 0.00 0.00 0.00 89 1012.9
20260506111533 13 0.0 12.9 0.00 0.00 0.00 91 1012.9
20260506110039 13 0.0 8.0 0.00 0.00 0.00 92 1013.1
20260506104528 12 1.6 12.9 0.00 0.00 0.00 92 1012.9
20260506103025 12 0.0 17.7 0.00 0.00 0.00 93 1012.9
20260506101520 12 0.0 4.8 0.00 0.00 0.00 93 1012.8
20260506100020 12 0.0 16.1 0.00 0.00 0.00 93 1012.9
20260506094514 12 0.0 3.2 0.00 0.00 0.00 92 1012.7
20260506093011 13 1.6 12.9 0.00 0.00 0.00 92 1012.9
20260506091509 13 0.0 1.6 0.00 0.00 0.00 92 1012.9
20260506090005 13 0.0 16.1 0.00 0.00 0.00 91 1013.1
20260506084502 13 0.0 14.5 0.00 0.00 0.00 91 1013.1
20260506083101 13 0.0 0.0 0.00 0.00 0.00 91 1013.1
20260506081608 13 0.0 14.5 0.00 0.00 0.00 91 1013.1
20260506073051 13 1.6 12.9 0.00 0.00 0.00 90 1013.3
20260506071545 13 0.0 8.0 0.00 0.00 0.00 90 1013.4
20260506061543 13 0.0 0.0 0.00 0.00 0.00 89 1013.4
20260506044513 14 0.0 3.2 0.00 0.00 0.00 85 1013.8
20260506043010 14 0.0 17.7 0.00 0.00 0.00 85 1013.8
20260506041507 14 1.6 19.3 0.00 0.00 0.00 84 1013.7
20260506040003 14 0.0 8.0 0.00 0.00 0.00 83 1013.9
20260506034503 15 1.6 17.7 0.00 0.00 0.00 82 1013.9
20260506033059 15 0.0 14.5 0.00 0.00 0.00 82 1013.7
20260506031605 15 0.0 14.5 0.00 0.00 0.00 81 1013.5
20260506030057 15 0.0 12.9 0.00 0.00 0.00 81 1013.6
20260506024557 15 0.0 16.1 0.00 0.00 0.00 81 1013.6
20260506023057 15 1.6 19.3 0.00 0.00 0.00 80 1013.8
20260506021551 15 1.6 11.3 0.00 0.00 0.00 79 1013.6
20260506020049 15 0.0 17.7 0.00 0.00 0.00 78 1013.7
20260506014548 15 1.6 14.5 0.00 0.00 0.00 77 1013.5
20260506013053 16 3.2 24.1 0.00 0.00 0.00 77 1013.5
20260506011545 16 0.0 20.9 0.00 0.00 0.00 76 1013.2
20260506010054 16 0.0 24.1 0.00 0.00 0.00 75 1013.0
20260506004540 16 3.2 22.5 0.00 0.00 0.00 74 1012.9
20260506003039 17 0.0 19.3 0.00 0.00 0.00 72 1012.8
20260506001536 17 0.0 27.4 0.00 0.00 0.00 71 1012.7
20260506000034 17 0.0 20.9 0.00 0.00 0.00 70 1012.4
20260505234534 17 9.7 25.7 0.00 0.00 0.00 69 1012.3
20260505233030 17 0.0 20.9 0.00 0.00 0.00 69 1011.9
20260505231529 17 4.8 24.1 0.00 0.00 0.00 68 1011.8
20260505230037 17 4.8 24.1 0.00 0.00 0.00 69 1011.6
20260505224525 18 8.0 20.9 0.00 0.00 0.00 67 1011.6
20260505223025 18 3.2 37.0 0.00 0.00 0.00 66 1011.5
20260505221522 19 0.0 32.2 0.00 0.00 0.00 64 1011.4
20260505220024 19 4.8 29.0 0.00 0.00 0.00 63 1011.4
20260505214517 19 8.0 29.0 0.00 0.00 0.00 62 1011.2
20260505213021 20 8.0 27.4 0.00 0.00 0.00 62 1011.2
20260505211517 20 6.4 25.7 0.00 0.00 0.00 63 1011.1
20260505210010 19 3.2 27.4 0.00 0.00 0.00 65 1011.2
20260505204510 19 6.4 33.8 0.00 0.00 0.00 65 1011.1
20260505203008 20 4.8 29.0 0.00 0.00 0.00 64 1011.1
20260505201506 20 4.8 25.7 0.00 0.00 0.00 64 1011.3
20260505200003 20 9.7 30.6 0.00 0.00 0.00 62 1011.2
20260505194559 20 0.0 25.7 0.00 0.00 0.00 62 1011.6
20260505193057 21 1.6 22.5 0.00 0.00 0.00 61 1011.7
20260505191603 20 0.0 22.5 0.00 0.00 0.00 64 1012.2
20260505190057 20 0.0 20.9 0.00 0.00 0.00 64 1012.3
20260505184547 20 6.4 17.7 0.00 0.00 0.00 63 1012.6
20260505183108 20 1.6 14.5 0.00 0.00 0.00 65 1012.7
20260505181541 20 0.0 19.3 0.00 0.00 0.00 66 1012.8
20260505180042 20 0.0 1.6 0.00 0.00 0.00 66 1012.9
20260505174537 20 0.0 0.0 0.00 0.00 0.00 67 1012.9
20260505173046 20 0.0 16.1 0.00 0.00 0.00 67 1012.9
20260505171542 20 0.0 12.9 0.00 0.00 0.00 66 1013.0
20260505170030 20 0.0 16.1 0.00 0.00 0.00 65 1013.1
20260505164527 21 0.0 16.1 0.00 0.00 0.00 65 1013.2
20260505163025 21 0.0 6.4 0.00 0.00 0.00 64 1013.3
20260505161522 21 0.0 6.4 0.00 0.00 0.00 62 1013.5
20260505153013 20 0.0 9.7 0.00 0.00 0.00 65 1013.6
20260505151510 20 0.0 0.0 0.00 0.00 0.00 66 1014.0